This is the latest recevied weather packets stored in our database for station/object KB0BS-13. If no packets are shown the sender has not sent any weather packets the latest 10 day(s).
| Time | Temp. | Humidity | Pressure | Rain* | Wind** | Luminosity | Snow |
|---|---|---|---|---|---|---|---|
| 1778115647 | 2.78° C | 75% | 1014.2 hPa | 0 mm | - | 1 W/m² | - |
| 1778115344 | 2.78° C | 75% | 1014.1 hPa | 0 mm | - | 1 W/m² | - |
| 1778115040 | 2.78° C | 76% | 1014.2 hPa | 0 mm | - | 1 W/m² | - |
| 1778114737 | 2.78° C | 75% | 1014 hPa | 0 mm | - | 2 W/m² | - |
| 1778114429 | 2.78° C | 76% | 1014.2 hPa | 0 mm | - | 3 W/m² | - |
| 1778114125 | 2.78° C | 73% | 1014 hPa | 0 mm | - | 3 W/m² | - |
| 1778113820 | 2.78° C | 72% | 1013.9 hPa | 0 mm | - | 6 W/m² | - |
| 1778113516 | 3.33° C | 72% | 1014 hPa | 0 mm | - | 6 W/m² | - |
| 1778113213 | 3.33° C | 71% | 1013.8 hPa | 0 mm | - | 7 W/m² | - |
| 1778112909 | 3.33° C | 71% | 1013.9 hPa | 0 mm | - | 9 W/m² | - |
| 1778112607 | 3.33° C | 71% | 1013.9 hPa | 0 mm | - | 12 W/m² | - |
| 1778112302 | 3.33° C | 71% | 1013.7 hPa | 0 mm | - | 15 W/m² | - |
| 1778111998 | 3.89° C | 69% | 1013.7 hPa | 0 mm | - | 19 W/m² | - |
| 1778111696 | 3.89° C | 70% | 1013.5 hPa | 0 mm | - | 25 W/m² | - |
| 1778111391 | 3.89° C | 69% | 1013.5 hPa | 0 mm | - | 40 W/m² | - |
| 1778111089 | 3.89° C | 66% | 1013.5 hPa | 0 mm | - | 35 W/m² | - |
| 1778110787 | 3.89° C | 65% | 1013.6 hPa | 0 mm | - | 30 W/m² | - |
| 1778110483 | 3.89° C | 65% | 1013.4 hPa | 0 mm | - | 33 W/m² | - |
| 1778110179 | 3.89° C | 65% | 1013.4 hPa | 0 mm | - | 40 W/m² | - |
| 1778109876 | 4.44° C | 66% | 1013.6 hPa | 0 mm | - | 42 W/m² | - |
| 1778109571 | 4.44° C | 66% | 1013.7 hPa | 0 mm | - | 52 W/m² | - |
| 1778109269 | 4.44° C | 65% | 1013.5 hPa | 0 mm | - | 51 W/m² | - |
| 1778108966 | 4.44° C | 63% | 1013.5 hPa | 0 mm | - | 57 W/m² | - |
| 1778108662 | 4.44° C | 64% | 1013.6 hPa | 0 mm | - | 71 W/m² | - |
| 1778108359 | 4.44° C | 65% | 1013.5 hPa | 0 mm | - | 85 W/m² | - |
* Rain latest hour (hover to see other rain measurements)
** Current wind speed in m/s (hover to see current wind gust speed)